Denison
Thursday 12:35 AM
Temperature64° (64°/64°)
Dew Point63°
Relative Humidity94
%
Visibility10
mi
Pressure1012.5
mb
Wind DirectionS
180°
Wind Speed14
mph
Precipitation Today0.00"

Last 30 Observations

Time PresWx Temp DP Feels RH% Vsby Pressure Ceiling Direction Speed 1h Precip
12:35 AM 64° 63° 94
%
10
mi
1012.5
mb
S
180°
14
mph
0.00"
12:15 AM 64° 63° 94
%
10
mi
1013.2
mb
SSW
200°
9
mph
0.00"
11:55 PM 64° 63° 94
%
10
mi
1012.9
mb
S
180°
13
mph
0.00"
11:35 PM 64° 63° 94
%
10
mi
1012.9
mb
S
190°
13
mph
0.00"
11:15 PM 64° 63° 94
%
10
mi
1012.9
mb
S
180°
11
mph
0.00"
10:55 PM 64° 61° 88
%
10
mi
1013.2
mb
S
180°
10
mph
0.00"
10:35 PM 64° 63° 94
%
10
mi
1013.2
mb
S
180°
14
mph
0.00"
10:15 PM 66° 63° 88
%
10
mi
1013.2
mb
SSE
160°
15
mph
0.00"
9:55 PM 66° 63° 88
%
10
mi
1013.6
mb
S
170°
14
mph
0.00"
9:35 PM 66° 63° 88
%
10
mi
1013.6
mb
SSE
160°
11
mph
0.00"
9:15 PM 66° 63° 88
%
10
mi
1013.6
mb
SSE
160°
9
mph
0.00"
8:55 PM 66° 63° 88
%
10
mi
1013.6
mb
SSE
160°
10
mph
0.00"
8:35 PM 66° 63° 88
%
10
mi
1013.2
mb
SSE
150°
9
mph
0.00"
8:15 PM 68° 63° 83
%
10
mi
1013.2
mb
SSE
150°
7
mph
0.00"
7:55 PM 68° 63° 83
%
10
mi
1013.2
mb
SSE
160°
8
mph
0.00"
7:35 PM 70° 63° 78
%
10
mi
1013.2
mb
SSE
150°
7
mph
0.00"
7:15 PM 72° 63° 72°73
%
10
mi
1013.2
mb
S
170°
9
mph
0.00"
6:55 PM 73° 63° 74°69
%
10
mi
1013.2
mb
S
180°
9
mph
0.00"
6:35 PM 73° 63° 74°69
%
10
mi
1012.9
mb
S
170°
8
mph
(G16)
0.00"
6:15 PM 75° 61° 75°61
%
10
mi
1012.9
mb
S
180°
10
mph
0.00"
5:55 PM 77° 61° 77°57
%
10
mi
1012.9
mb
SSW
200°
15
mph
(G22)
0.00"
5:35 PM 77° 61° 77°57
%
10
mi
1012.9
mb
S
190°
14
mph
(G21)
0.00"
5:15 PM 77° 61° 77°57
%
10
mi
1012.9
mb
SSW
200°
18
mph
0.00"
4:55 PM 77° 61° 77°57
%
10
mi
1013.2
mb
S
190°
16
mph
(G26)
0.00"
4:35 PM 79° 61° 79°54
%
10
mi
1013.2
mb
S
190°
16
mph
0.00"
4:15 PM 79° 61° 79°54
%
10
mi
1013.2
mb
SSW
200°
17
mph
0.00"
3:55 PM 79° 61° 79°54
%
10
mi
1013.6
mb
SSW
210°
15
mph
(G22)
0.00"
3:35 PM 79° 61° 79°54
%
10
mi
1013.9
mb
S
190°
16
mph
0.00"
3:15 PM 79° 61° 79°54
%
10
mi
1014.2
mb
SSW
200°
15
mph
0.00"
2:55 PM 77° 61° 77°57
%
10
mi
1014.2
mb
SSW
200°
15
mph
(G24)
0.00"